Погода во Владыславово

Польша     54°47′52″N   18°23′41″E
темп.,
°C
ветер,
м/с
пор.,
м/с
влажн.,
%
обл.,
%
осадки,
мм/ч
давл.,
гПа
погр.,
м
28 февраля, вс
вс2801:00+4з6118381 0.0 1032247
04:00+3з7139232 0.0 1030307
07:00+3зсз8139316 0.0 1030412
10:00+3зсз8109288 0.0 1030415
13:00+4зсз8118793 0.0 1031372
16:00+5зсз710850 0.0 1030285
19:00+4зсз68870 0.0 1032157
22:00+3зсз45870 0.0 103273
1 марта, пн
пн101:00+3з45860 0.0 103370
04:00+3з45850 0.0 103271
07:00+2зюз58890 0.0 1033159
10:00+5зюз58810 0.0 1032181
13:00+7з69750 0.0 1032233
16:00+7з812700 0.0 1030272
19:00+5з915790 0.0 1030342
22:00+4з915850 0.0 1029324
2 марта, вт
вт201:00+4з713880 0.0 1030312
04:00+3зсз611920 0.0 1029285
07:00+3з610941 0.0 1029286
10:00+5з7108928 0.0 1030308
13:00+6зсз7108314 0.0 1030277
16:00+4зсз79910 0.0 1029274
19:00+3зсз679450 0.0 1030311
22:00+3зсз4595100 0.0 1030326
3 марта, ср
ср301:00+3зсз2396100 0.0 1031195
04:00+3ююз2295100 0.0 1029135
07:00+3юз2293100 0.1 1029101
10:00+5зюз238699 0.0 1029161
13:00+6з237689 0.0 1028235
16:00+6зсз347619 0.0 1025217
19:00+5зюз358110 0.0 1024107
22:00+4зюз47760 0.0 1022134
4 марта, чт
чт401:00+4зюз47800 0.0 1019139
04:00+4зюз598538 0.0 1017161
07:00+3зюз6119141 0.0 1014239
10:00+6з698470 0.0 1012270
13:00+6зсз7108086 0.0 1011394
16:00+4зсз5888100 0.1 1010387
19:00+3сз4693100 0.3 1010361
22:00+1св101287100 0.8 1010840